PHOENIX (42706 NORAD) Tracking and Keplerian Element Data

This shows tracking and keplerian element data for the satellite.

Feedback or suggestion? Click here.




ElementValue
Catalog42706
NamePHOENIX
Epoch Orbit10572
Epoch Day80.86327676
Epoch Year2019
RAAN4.2062
Inclination51.6254
Eccentricity0.0004136
Argument of Perigee158.5804
Mean Anonmoly201.5375
Mean Motion15.90813692
Decay Rate0.00106671
L11 42706U 98067LP 19080.86327676 .00106671 15333-4 34342-3 0 9991
L22 42706 51.6254 4.2062 0004136 158.5804 201.5375 15.90813692105725

Live tracking and technical data element details for PHOENIX (NORAD 42706). PHOENIX can be tracked NOW for your location showing map with azimuth and elevation plus other details from your city location.

Track the satellite on the map from your city or location and see movement details for azimuth, elevation, latitude, longitude, range, height, and movement on the map or in text.







IsCatalogInMostPopularTable: catalog: 42706, numindb: 213
Update: records affected: 1



GetName: 42706 PHOENIX

Hit Count: updated at: Sat, 23 Mar 2019 02:23:06 GMT